STARLINK-1270 (45237 NORAD) Tracking and Keplerian Element Data

This shows tracking and keplerian element data for the satellite.

Feedback or suggestion? Click here.




ElementValue
Catalog45237
NameSTARLINK-1270
Epoch Orbit2164
Epoch Day185.16667824
Epoch Year2020
RAAN323.9889
Inclination53.0006
Eccentricity0.000142
Argument of Perigee90.4524
Mean Anonmoly280.3845
Mean Motion15.05555241
Decay Rate0.00056979
L11 45237U 20012BM 20185.16667824 .00056979 00000-0 39009-2 0 9991
L22 45237 53.0006 323.9889 0001420 90.4524 280.3845 15.05555241 21646

Live tracking and technical data element details for STARLINK-1270 (NORAD 45237). STARLINK-1270 can be tracked NOW for your location showing map with azimuth and elevation plus other details from your city location.

Track the satellite on the map from your city or location and see movement details for azimuth, elevation, latitude, longitude, range, height, and movement on the map or in text.







IsCatalogInMostPopularTable: catalog: 45237, numindb: 37
Update: records affected: 1



GetName: 45237 STARLINK-1270

Hit Count: updated at: Fri, 03 Jul 2020 15:56:26 GMT